EZY34D LKPR-EGKK

Flight info

Callsign EZY34D
Flight time 1h 34m
Altitude 36000
Route BALTU DCT DONAD DCT RAPET Z93 KODUK DCT MASEK DCT ARPEG DCT BREDA DCT GALSO Q63 ARREK Y4 TEBRA
Aircraft A319/M-SDE3FGHIRWY/LB1

Departure

Time 2026-05-05 21:55
Airport Václav Havel Airport Prague (LKPR)

Arrival

Time 2026-05-05 23:29
Airport London Gatwick Airport (EGKK)
Time Latitude Longitude Altitude Speed Heading
2026-05-05 21:29 50.10460 14.26530 1173 ft 0 kts 34°
2026-05-05 21:44 50.10455 14.26524 1178 ft 2 kts 35°
2026-05-05 21:44 50.10439 14.26509 1174 ft 3 kts 14°
2026-05-05 21:44 50.10426 14.26506 1173 ft 3 kts 350°
2026-05-05 21:44 50.10409 14.26516 1174 ft 2 kts 321°
2026-05-05 21:45 50.10403 14.26524 1174 ft 1 kts 319°
2026-05-05 21:45 50.10402 14.26525 1174 ft 1 kts 319°
2026-05-05 21:46 50.10403 14.26524 1174 ft 1 kts 319°
2026-05-05 21:47 50.10414 14.26510 1173 ft 1 kts 319°
2026-05-05 21:47 50.10421 14.26499 1173 ft 0 kts 319°
2026-05-05 21:47 50.10425 14.26493 1173 ft 3 kts 314°
2026-05-05 21:47 50.10460 14.26417 1177 ft 11 kts 304°
2026-05-05 21:48 50.10503 14.26321 1177 ft 11 kts 304°
2026-05-05 21:48 50.10543 14.26193 1176 ft 15 kts 291°
2026-05-05 21:48 50.10583 14.26048 1178 ft 14 kts 266°
2026-05-05 21:48 50.10525 14.25978 1183 ft 9 kts 187°
2026-05-05 21:49 50.10474 14.26029 1185 ft 10 kts 127°
2026-05-05 21:49 50.10427 14.26127 1187 ft 12 kts 127°
2026-05-05 21:49 50.10373 14.26240 1189 ft 14 kts 127°
2026-05-05 21:49 50.10310 14.26370 1192 ft 16 kts 127°
2026-05-05 21:50 50.10240 14.26516 1195 ft 18 kts 127°
2026-05-05 21:50 50.10162 14.26677 1197 ft 20 kts 126°
2026-05-05 21:50 50.10080 14.26848 1201 ft 19 kts 127°
2026-05-05 21:50 50.10007 14.26998 1204 ft 16 kts 127°
2026-05-05 21:51 50.09939 14.27141 1206 ft 18 kts 126°
2026-05-05 21:51 50.09855 14.27311 1205 ft 20 kts 131°
2026-05-05 21:51 50.09759 14.27462 1206 ft 19 kts 135°
2026-05-05 21:51 50.09664 14.27605 1207 ft 19 kts 136°
2026-05-05 21:52 50.09494 14.27866 1214 ft 16 kts 134°
2026-05-05 21:52 50.09405 14.28002 1218 ft 20 kts 135°
2026-05-05 21:52 50.09302 14.28163 1224 ft 21 kts 135°
2026-05-05 21:53 50.09196 14.28290 1230 ft 17 kts 174°
2026-05-05 21:53 50.09113 14.28227 1244 ft 12 kts 231°
2026-05-05 21:53 50.09077 14.28121 1234 ft 8 kts 252°
2026-05-05 21:53 50.09086 14.28085 1233 ft 0 kts 307°
2026-05-05 21:54 50.09087 14.28082 1233 ft 1 kts 307°
2026-05-05 21:54 50.09113 14.28031 1233 ft 17 kts 307°
2026-05-05 21:54 50.09339 14.27563 1224 ft 91 kts 307°
2026-05-05 21:54 50.09845 14.26508 1215 ft 150 kts 306°
2026-05-05 21:55 50.10523 14.25136 1626 ft 164 kts 304°
2026-05-05 21:55 50.11235 14.23698 2281 ft 171 kts 304°
2026-05-05 21:55 50.11979 14.22176 2843 ft 185 kts 303°
2026-05-05 21:55 50.12782 14.20482 3234 ft 208 kts 304°
2026-05-05 21:56 50.13699 14.18541 3612 ft 235 kts 303°
2026-05-05 21:56 50.14725 14.16389 4152 ft 257 kts 303°
2026-05-05 21:56 50.15820 14.14107 4954 ft 267 kts 303°
2026-05-05 21:56 50.16941 14.11778 5928 ft 270 kts 301°
2026-05-05 21:57 50.18072 14.09421 6873 ft 273 kts 302°
2026-05-05 21:57 50.19217 14.07037 7797 ft 276 kts 302°
2026-05-05 21:57 50.20378 14.04617 8683 ft 280 kts 302°
2026-05-05 21:57 50.21506 14.02122 9584 ft 282 kts 295°
2026-05-05 21:58 50.22201 13.99280 10334 ft 283 kts 278°
2026-05-05 21:58 50.22315 13.96121 10632 ft 302 kts 260°
2026-05-05 21:58 50.21769 13.92914 11196 ft 310 kts 249°
2026-05-05 21:58 50.21072 13.89691 11958 ft 316 kts 249°
2026-05-05 21:59 50.20377 13.86413 12750 ft 321 kts 249°
2026-05-05 21:59 50.19677 13.83076 13519 ft 326 kts 249°
2026-05-05 21:59 50.18966 13.79684 14186 ft 331 kts 249°
2026-05-05 21:59 50.18244 13.76247 14857 ft 336 kts 249°
2026-05-05 22:00 50.17511 13.72768 15526 ft 340 kts 249°
2026-05-05 22:00 50.17046 13.69114 16163 ft 350 kts 265°
2026-05-05 22:00 50.17092 13.65285 16822 ft 356 kts 268°
2026-05-05 22:00 50.17171 13.61451 17467 ft 360 kts 269°
2026-05-05 22:01 50.17257 13.57522 18106 ft 365 kts 269°
2026-05-05 22:01 50.17343 13.53541 18664 ft 369 kts 268°
2026-05-05 22:01 50.17428 13.49522 19251 ft 373 kts 268°
2026-05-05 22:01 50.17514 13.45462 19831 ft 376 kts 268°
2026-05-05 22:02 50.17597 13.41363 20420 ft 380 kts 268°
2026-05-05 22:02 50.17678 13.37225 21000 ft 383 kts 268°
2026-05-05 22:02 50.17756 13.33053 21574 ft 387 kts 268°
2026-05-05 22:02 50.17836 13.28837 22141 ft 390 kts 268°
2026-05-05 22:03 50.17915 13.24580 22717 ft 394 kts 268°
2026-05-05 22:03 50.17994 13.20294 23291 ft 397 kts 268°
2026-05-05 22:03 50.18070 13.15962 23769 ft 401 kts 268°
2026-05-05 22:03 50.18141 13.11598 24259 ft 404 kts 268°
2026-05-05 22:04 50.18209 13.07202 24725 ft 406 kts 268°
2026-05-05 22:04 50.18279 13.02779 25182 ft 409 kts 268°
2026-05-05 22:04 50.18353 12.98329 25623 ft 412 kts 268°
2026-05-05 22:04 50.18426 12.93847 26081 ft 415 kts 268°
2026-05-05 22:05 50.18497 12.89322 26433 ft 420 kts 268°
2026-05-05 22:05 50.18566 12.84743 26807 ft 424 kts 268°
2026-05-05 22:05 50.18631 12.80129 27222 ft 427 kts 268°
2026-05-05 22:05 50.18693 12.75484 27643 ft 429 kts 268°
2026-05-05 22:06 50.18755 12.70815 28062 ft 432 kts 268°
2026-05-05 22:06 50.18816 12.66170 28463 ft 435 kts 268°
2026-05-05 22:06 50.18879 12.61443 28891 ft 437 kts 267°
2026-05-05 22:06 50.18938 12.56695 29369 ft 438 kts 267°
2026-05-05 22:07 50.18994 12.51935 29800 ft 440 kts 267°
2026-05-05 22:07 50.19048 12.47152 30172 ft 442 kts 267°
2026-05-05 22:07 50.19101 12.42349 30514 ft 444 kts 267°
2026-05-05 22:07 50.19154 12.37524 30837 ft 446 kts 267°
2026-05-05 22:08 50.19206 12.32685 31160 ft 447 kts 267°
2026-05-05 22:08 50.19254 12.27811 31491 ft 449 kts 267°
2026-05-05 22:08 50.19300 12.22952 31946 ft 447 kts 267°
2026-05-05 22:08 50.19346 12.18110 32423 ft 445 kts 267°
2026-05-05 22:09 50.19388 12.13284 32896 ft 444 kts 266°
2026-05-05 22:09 50.19426 12.08477 33360 ft 442 kts 266°
2026-05-05 22:09 50.19463 12.03685 33827 ft 441 kts 266°
2026-05-05 22:09 50.19498 11.98914 34248 ft 440 kts 267°
2026-05-05 22:10 50.19531 11.94137 34548 ft 440 kts 267°
2026-05-05 22:10 50.19562 11.89357 34881 ft 440 kts 267°
2026-05-05 22:10 50.19590 11.84595 35230 ft 439 kts 267°
2026-05-05 22:10 50.19616 11.79834 35587 ft 438 kts 267°
2026-05-05 22:11 50.19641 11.75091 35776 ft 437 kts 266°
2026-05-05 22:11 50.19693 11.65726 35809 ft 428 kts 266°
2026-05-05 22:12 50.19735 11.56470 35810 ft 426 kts 266°
2026-05-05 22:12 50.19755 11.47210 35809 ft 428 kts 266°
2026-05-05 22:13 50.19771 11.37915 35813 ft 428 kts 266°
2026-05-05 22:13 50.19787 11.28616 35812 ft 428 kts 266°
2026-05-05 22:14 50.19798 11.19388 35811 ft 428 kts 266°
2026-05-05 22:14 50.19796 11.10084 35810 ft 428 kts 266°
2026-05-05 22:15 50.19817 11.00796 35820 ft 430 kts 270°
2026-05-05 22:15 50.21145 10.91653 35813 ft 438 kts 290°
2026-05-05 22:16 50.24181 10.83356 35802 ft 442 kts 300°
2026-05-05 22:16 50.27468 10.75230 35797 ft 442 kts 299°
2026-05-05 22:17 50.30741 10.67079 35803 ft 442 kts 299°
2026-05-05 22:17 50.34013 10.58912 35812 ft 443 kts 300°
2026-05-05 22:18 50.37281 10.50733 35804 ft 443 kts 299°
2026-05-05 22:18 50.40554 10.42527 35796 ft 444 kts 299°
2026-05-05 22:19 50.43821 10.34316 35804 ft 444 kts 299°
2026-05-05 22:19 50.47053 10.26134 35803 ft 444 kts 299°
2026-05-05 22:20 50.50305 10.17884 35815 ft 444 kts 299°
2026-05-05 22:20 50.53562 10.09628 35806 ft 445 kts 299°
2026-05-05 22:21 50.56809 10.01340 35808 ft 445 kts 299°
2026-05-05 22:21 50.60040 9.93043 35812 ft 445 kts 298°
2026-05-05 22:22 50.63277 9.84737 35816 ft 445 kts 299°
2026-05-05 22:22 50.66517 9.76418 35823 ft 445 kts 299°
2026-05-05 22:23 50.69743 9.68075 35815 ft 445 kts 298°
2026-05-05 22:23 50.72863 9.59639 35812 ft 443 kts 292°
2026-05-05 22:24 50.75040 9.50583 35812 ft 441 kts 287°
2026-05-05 22:24 50.77119 9.41466 35812 ft 441 kts 287°
2026-05-05 22:25 50.79180 9.32389 35823 ft 442 kts 287°
2026-05-05 22:25 50.81263 9.23180 35816 ft 442 kts 287°
2026-05-05 22:26 50.83326 9.14023 35813 ft 442 kts 287°
2026-05-05 22:26 50.85368 9.04917 35811 ft 442 kts 287°
2026-05-05 22:27 50.87410 8.95731 35809 ft 442 kts 286°
2026-05-05 22:27 50.89447 8.86542 35810 ft 442 kts 286°
2026-05-05 22:28 50.91482 8.77346 35808 ft 442 kts 286°
2026-05-05 22:28 50.93507 8.68139 35808 ft 443 kts 286°
2026-05-05 22:29 50.95202 8.60413 35811 ft 442 kts 286°
2026-05-05 22:29 50.97213 8.51187 35828 ft 442 kts 286°
2026-05-05 22:30 50.99212 8.41954 35825 ft 442 kts 286°
2026-05-05 22:30 51.01206 8.32717 35828 ft 442 kts 286°
2026-05-05 22:31 51.03037 8.23415 35827 ft 441 kts 283°
2026-05-05 22:31 51.04621 8.14016 35827 ft 440 kts 282°
2026-05-05 22:32 51.06160 8.04666 35839 ft 440 kts 282°
2026-05-05 22:32 51.07747 7.95276 35827 ft 439 kts 282°
2026-05-05 22:33 51.09353 7.85905 35825 ft 439 kts 282°
2026-05-05 22:33 51.10948 7.76524 35824 ft 438 kts 282°
2026-05-05 22:34 51.12524 7.67152 35818 ft 438 kts 282°
2026-05-05 22:34 51.14095 7.57777 35834 ft 438 kts 282°
2026-05-05 22:35 51.15654 7.48389 35824 ft 439 kts 282°
2026-05-05 22:35 51.17210 7.38995 35826 ft 439 kts 282°
2026-05-05 22:36 51.18765 7.29596 35823 ft 438 kts 282°
2026-05-05 22:36 51.20306 7.20196 35824 ft 438 kts 281°
2026-05-05 22:37 51.21845 7.10781 35837 ft 438 kts 281°
2026-05-05 22:37 51.23372 7.01371 35831 ft 439 kts 281°
2026-05-05 22:38 51.24877 6.91986 35833 ft 439 kts 281°
2026-05-05 22:38 51.26384 6.82533 35831 ft 439 kts 281°
2026-05-05 22:39 51.27894 6.73073 35831 ft 439 kts 281°
2026-05-05 22:39 51.29397 6.63621 35844 ft 439 kts 281°
2026-05-05 22:40 51.30891 6.54153 35844 ft 439 kts 281°
2026-05-05 22:40 51.32371 6.44689 35843 ft 439 kts 281°
2026-05-05 22:41 51.33845 6.35213 35859 ft 439 kts 281°
2026-05-05 22:41 51.35305 6.25744 35861 ft 438 kts 281°
2026-05-05 22:42 51.36757 6.16278 35879 ft 438 kts 281°
2026-05-05 22:42 51.38203 6.06863 35877 ft 438 kts 281°
2026-05-05 22:43 51.39640 5.97400 35872 ft 437 kts 281°
2026-05-05 22:43 51.41069 5.87936 35870 ft 437 kts 281°
2026-05-05 22:44 51.42491 5.78467 35876 ft 437 kts 281°
2026-05-05 22:44 51.43910 5.69009 35890 ft 437 kts 280°
2026-05-05 22:45 51.45319 5.59553 35900 ft 436 kts 280°
2026-05-05 22:45 51.46713 5.50101 35903 ft 435 kts 280°
2026-05-05 22:46 51.48092 5.40659 35902 ft 435 kts 280°
2026-05-05 22:46 51.49466 5.31218 35898 ft 434 kts 280°
2026-05-05 22:47 51.50832 5.21788 35908 ft 433 kts 280°
2026-05-05 22:47 51.52188 5.12368 35906 ft 433 kts 280°
2026-05-05 22:48 51.53536 5.02964 35904 ft 432 kts 280°
2026-05-05 22:48 51.54873 4.93542 35901 ft 432 kts 279°
2026-05-05 22:49 51.56192 4.84131 35894 ft 432 kts 279°
2026-05-05 22:49 51.57305 4.74654 35909 ft 431 kts 277°
2026-05-05 22:50 51.58272 4.65159 35900 ft 430 kts 276°
2026-05-05 22:50 51.59242 4.55732 35894 ft 430 kts 277°
2026-05-05 22:51 51.60257 4.46253 35892 ft 430 kts 277°
2026-05-05 22:51 51.61275 4.36762 35891 ft 430 kts 277°
2026-05-05 22:52 51.62284 4.27271 35887 ft 430 kts 277°
2026-05-05 22:52 51.63274 4.17774 35891 ft 430 kts 277°
2026-05-05 22:53 51.64256 4.08270 35887 ft 430 kts 277°
2026-05-05 22:53 51.65234 3.98776 35899 ft 430 kts 276°
2026-05-05 22:54 51.66199 3.89277 35900 ft 430 kts 276°
2026-05-05 22:54 51.67160 3.79778 35918 ft 430 kts 276°
2026-05-05 22:55 51.68114 3.70280 35915 ft 430 kts 276°
2026-05-05 22:55 51.69058 3.60765 35923 ft 430 kts 276°
2026-05-05 22:56 51.69991 3.51308 35927 ft 429 kts 276°
2026-05-05 22:56 51.70919 3.41796 35935 ft 429 kts 276°
2026-05-05 22:57 51.71836 3.32288 35944 ft 429 kts 275°
2026-05-05 22:57 51.72744 3.22749 35914 ft 431 kts 275°
2026-05-05 22:58 51.72940 3.13166 35910 ft 426 kts 259°
2026-05-05 22:58 51.72116 3.03660 34762 ft 433 kts 258°
2026-05-05 22:58 51.71689 2.98791 33562 ft 438 kts 259°
2026-05-05 22:59 51.71269 2.93957 32581 ft 433 kts 258°
2026-05-05 22:59 51.70856 2.89177 31674 ft 428 kts 259°
2026-05-05 22:59 51.70449 2.84461 30845 ft 421 kts 259°
2026-05-05 22:59 51.70049 2.79900 30197 ft 412 kts 259°
2026-05-05 23:00 51.69244 2.70892 29275 ft 399 kts 258°
2026-05-05 23:00 51.68849 2.66493 28843 ft 393 kts 259°
2026-05-05 23:00 51.68459 2.62162 28410 ft 388 kts 259°
2026-05-05 23:01 51.68073 2.57888 27987 ft 383 kts 258°
2026-05-05 23:01 51.67691 2.53653 27553 ft 380 kts 258°
2026-05-05 23:01 51.67312 2.49461 27138 ft 376 kts 259°
2026-05-05 23:01 51.66914 2.45315 26606 ft 374 kts 255°
2026-05-05 23:02 51.66139 2.41284 25882 ft 377 kts 248°
2026-05-05 23:02 51.65291 2.37297 25438 ft 375 kts 250°
2026-05-05 23:02 51.64467 2.33385 24993 ft 372 kts 250°
2026-05-05 23:02 51.63626 2.29397 24539 ft 371 kts 250°
2026-05-05 23:03 51.62811 2.25529 24080 ft 369 kts 250°
2026-05-05 23:03 51.61978 2.21586 23614 ft 367 kts 250°
2026-05-05 23:03 51.61162 2.17752 23099 ft 365 kts 250°
2026-05-05 23:03 51.60338 2.13903 22643 ft 361 kts 250°
2026-05-05 23:04 51.59523 2.10104 22201 ft 358 kts 250°
2026-05-05 23:04 51.58710 2.06343 21758 ft 355 kts 250°
2026-05-05 23:04 51.57905 2.02612 21329 ft 352 kts 251°
2026-05-05 23:04 51.57110 1.98913 20905 ft 349 kts 251°
2026-05-05 23:05 51.56320 1.95238 20475 ft 346 kts 251°
2026-05-05 23:05 51.55530 1.91589 20068 ft 344 kts 251°
2026-05-05 23:05 51.54741 1.87968 19651 ft 343 kts 251°
2026-05-05 23:05 51.53957 1.84366 19239 ft 341 kts 251°
2026-05-05 23:06 51.53176 1.80774 18825 ft 340 kts 251°
2026-05-05 23:06 51.52398 1.77193 18413 ft 339 kts 252°
2026-05-05 23:06 51.51622 1.73629 17978 ft 338 kts 251°
2026-05-05 23:06 51.50845 1.70078 17567 ft 336 kts 251°
2026-05-05 23:07 51.50071 1.66559 17175 ft 333 kts 251°
2026-05-05 23:07 51.49302 1.63063 16783 ft 331 kts 251°
2026-05-05 23:07 51.48533 1.59593 16398 ft 329 kts 251°
2026-05-05 23:07 51.47752 1.56152 16019 ft 327 kts 250°
2026-05-05 23:08 51.46967 1.52744 15647 ft 325 kts 250°
2026-05-05 23:08 51.46180 1.49351 15276 ft 324 kts 250°
2026-05-05 23:08 51.45408 1.46019 14907 ft 322 kts 250°
2026-05-05 23:08 51.44632 1.42659 14530 ft 321 kts 251°
2026-05-05 23:09 51.43745 1.39388 14159 ft 320 kts 240°
2026-05-05 23:09 51.42420 1.36536 13829 ft 319 kts 226°
2026-05-05 23:09 51.40740 1.34281 13642 ft 313 kts 217°
2026-05-05 23:09 51.38989 1.32219 13430 ft 311 kts 218°
2026-05-05 23:10 51.37248 1.30157 13226 ft 311 kts 218°
2026-05-05 23:10 51.35510 1.28096 13016 ft 310 kts 218°
2026-05-05 23:10 51.33783 1.26047 12820 ft 309 kts 217°
2026-05-05 23:10 51.32061 1.24007 12602 ft 309 kts 217°
2026-05-05 23:11 51.30334 1.21963 12399 ft 310 kts 218°
2026-05-05 23:11 51.28599 1.19918 12194 ft 309 kts 217°
2026-05-05 23:11 51.26870 1.17888 11979 ft 308 kts 217°
2026-05-05 23:11 51.25291 1.15634 11739 ft 304 kts 233°
2026-05-05 23:12 51.24295 1.12690 11487 ft 301 kts 252°
2026-05-05 23:12 51.23604 1.09536 11233 ft 301 kts 253°
2026-05-05 23:12 51.22919 1.06396 10991 ft 300 kts 252°
2026-05-05 23:12 51.22234 1.03256 10742 ft 299 kts 252°
2026-05-05 23:13 51.21553 1.00139 10502 ft 297 kts 252°
2026-05-05 23:13 51.20873 0.97027 10256 ft 296 kts 252°
2026-05-05 23:13 51.20194 0.93936 10015 ft 295 kts 252°
2026-05-05 23:13 51.19519 0.90871 9871 ft 291 kts 252°
2026-05-05 23:14 51.19077 0.88858 9796 ft 291 kts 252°
2026-05-05 23:14 51.18406 0.85819 9672 ft 290 kts 252°
2026-05-05 23:14 51.17515 0.81809 9511 ft 290 kts 252°
2026-05-05 23:14 51.17062 0.79767 9427 ft 289 kts 252°
2026-05-05 23:15 51.16178 0.75770 9264 ft 289 kts 252°
2026-05-05 23:15 51.15726 0.73730 9182 ft 288 kts 252°
2026-05-05 23:15 51.15057 0.70722 9060 ft 287 kts 252°
2026-05-05 23:15 51.14388 0.67724 8939 ft 287 kts 252°
2026-05-05 23:16 51.13719 0.64735 8816 ft 286 kts 252°
2026-05-05 23:16 51.13052 0.61749 8701 ft 286 kts 252°
2026-05-05 23:16 51.12387 0.58780 8577 ft 285 kts 252°
2026-05-05 23:16 51.11720 0.55807 8454 ft 285 kts 252°
2026-05-05 23:17 51.11057 0.52843 8331 ft 284 kts 252°
2026-05-05 23:17 51.10397 0.49890 8202 ft 283 kts 252°
2026-05-05 23:17 51.09737 0.46943 8069 ft 283 kts 252°
2026-05-05 23:17 51.09072 0.43996 7941 ft 282 kts 252°
2026-05-05 23:18 51.08408 0.41053 7811 ft 282 kts 252°
2026-05-05 23:18 51.07748 0.38132 7675 ft 281 kts 252°
2026-05-05 23:18 51.07089 0.35209 7534 ft 280 kts 252°
2026-05-05 23:18 51.06435 0.32321 7193 ft 276 kts 252°
2026-05-05 23:19 51.05785 0.29462 6773 ft 274 kts 252°
2026-05-05 23:19 51.05139 0.26623 6331 ft 274 kts 252°
2026-05-05 23:19 51.04489 0.23762 5825 ft 275 kts 252°
2026-05-05 23:19 51.03840 0.20915 5380 ft 274 kts 252°
2026-05-05 23:20 51.03189 0.18081 4946 ft 272 kts 252°
2026-05-05 23:20 51.02543 0.15255 4491 ft 272 kts 252°
2026-05-05 23:20 51.01898 0.12423 4046 ft 273 kts 252°
2026-05-05 23:20 51.01475 0.09526 3745 ft 267 kts 272°
2026-05-05 23:21 51.01590 0.06573 3684 ft 269 kts 278°
2026-05-05 23:21 51.01744 0.03607 3614 ft 270 kts 278°
2026-05-05 23:21 51.01900 0.00639 3544 ft 270 kts 278°
2026-05-05 23:21 51.02051 -0.02330 3442 ft 269 kts 276°
2026-05-05 23:22 51.02199 -0.05277 3382 ft 268 kts 277°
2026-05-05 23:22 51.02352 -0.08218 3179 ft 265 kts 278°
2026-05-05 23:22 51.02819 -0.11016 2714 ft 262 kts 294°
2026-05-05 23:22 51.03471 -0.13713 2248 ft 262 kts 294°
2026-05-05 23:23 51.04107 -0.16356 2092 ft 249 kts 294°
2026-05-05 23:23 51.04709 -0.18859 1976 ft 237 kts 294°
2026-05-05 23:23 51.05286 -0.21246 1871 ft 226 kts 294°
2026-05-05 23:23 51.05835 -0.23520 1779 ft 215 kts 294°
2026-05-05 23:24 51.06353 -0.25689 1682 ft 202 kts 294°
2026-05-05 23:24 51.06836 -0.27709 1494 ft 192 kts 294°
2026-05-05 23:24 51.07311 -0.29679 1391 ft 190 kts 294°
2026-05-05 23:24 51.07781 -0.31621 1374 ft 189 kts 294°
2026-05-05 23:25 51.08254 -0.33574 1375 ft 189 kts 294°
2026-05-05 23:25 51.08804 -0.35418 1354 ft 175 kts 312°
2026-05-05 23:25 51.09675 -0.36472 1363 ft 147 kts 342°
2026-05-05 23:25 51.10630 -0.36753 1368 ft 135 kts
2026-05-05 23:26 51.11513 -0.36413 1374 ft 129 kts 28°
2026-05-05 23:26 51.12222 -0.35575 1377 ft 127 kts 49°
2026-05-05 23:26 51.12671 -0.34366 1379 ft 129 kts 70°
2026-05-05 23:26 51.12876 -0.32980 1379 ft 128 kts 76°
2026-05-05 23:27 51.13069 -0.31601 1373 ft 128 kts 76°
2026-05-05 23:27 51.13262 -0.30217 1346 ft 129 kts 76°
2026-05-05 23:27 51.13455 -0.28829 1230 ft 128 kts 76°
2026-05-05 23:27 51.13647 -0.27447 1082 ft 129 kts 76°
2026-05-05 23:28 51.13839 -0.26052 920 ft 129 kts 76°
2026-05-05 23:28 51.14033 -0.24650 746 ft 130 kts 76°
2026-05-05 23:28 51.14232 -0.23236 579 ft 131 kts 76°
2026-05-05 23:28 51.14427 -0.21823 393 ft 131 kts 75°
2026-05-05 23:29 51.14624 -0.20412 240 ft 130 kts 75°
2026-05-05 23:29 51.14802 -0.19127 212 ft 99 kts 77°
2026-05-05 23:29 51.14915 -0.18328 211 ft 49 kts 77°
2026-05-05 23:29 51.14990 -0.17945 213 ft 31 kts 59°
2026-05-05 23:30 51.15097 -0.17758 206 ft 19 kts 13°
2026-05-05 23:30 51.15229 -0.17780 205 ft 20 kts
2026-05-05 23:30 51.15287 -0.17606 205 ft 20 kts 80°
2026-05-05 23:30 51.15315 -0.17396 205 ft 18 kts 57°
2026-05-05 23:31 51.15423 -0.17385 212 ft 17 kts 348°
2026-05-05 23:31 51.15525 -0.17427 205 ft 18 kts 345°